Tracking 29594 objects as of 20-Sep-2024
HD Live streaming from Space Station
objects crossing your sky now

STARLINK-2592

Track STARLINK-2592 now!
10-day predictions
STARLINK-2592 is classified as:


NORAD ID: 48408
Int'l Code: 2021-038BH
Perigee: 553.2 km
Apogee: 555.5 km
Inclination: 53.1 °
Period: 95.6 minutes
Semi major axis: 6925 km
RCS: Unknown
Launch date: May 4, 2021
Source: United States (US)
Launch site: AIR FORCE EASTERN TEST RANGE (AFETR)
Your satellite tracking list
Your tracking list is empty




NASA's NSSDC Master Catalog

Two Line Element Set (TLE):
1 48408U 21038BH  24263.63532197  .00012507  00000-0  85701-3 0  9990
2 48408  53.0522 228.0605 0001634  84.2847 275.8328 15.06402102186509
Source of the keplerian elements: AFSPC